User: anonymous   Login
Location: Unspecified
(0.0000°N, 0.0000°E)
Time: 21:56:06
(UTC+00:00)
Language:

STARLINK-33624 - Orbit

View from above orbital plane
View from above orbital plane
View from above satellite
View from above satellite

Ground track
Ground track

The orbit is defined by the following mean orbital elements,

1 63071U          26145.49521170 +.00000000 +00000-0 +89840-3 0 00009
2 63071  42.9997  70.0684 0000820  49.6493 310.4431 15.27583042    02
Epoch (UTC): 25 May 2026 11:53:06
Eccentricity: 0.0000820
inclination: 42.9997°
perigee height: 482 km
apogee height: 484 km
right ascension of ascending node: 70.0684°
argument of perigee: 49.6493°
revolutions per day: 15.27583042
mean anomaly at epoch: 310.4431°

The dashed part of the orbit path shows where the satellite is in the earth's shadow,  

DLR